Time,TemperatureF,DewpointF,PressureIn,WindDirection,WindDirectionDegrees,WindSpeedMPH,WindSpeedGustMPH,Humidity,HourlyPrecipIn,Conditions,Clouds,dailyrainin,SoftwareType,DateUTC
2013-03-05 00:04:00,41.3,39.4,30.10,ENE,76,0.0,0.0,93,0.00,,,0.00,WeatherCatV1.14B232,2013-03-05 08:04:00,
2013-03-05 00:09:00,41.3,39.4,30.10,ENE,76,0.0,0.0,93,0.00,,,0.00,WeatherCatV1.14B232,2013-03-05 08:09:00,
2013-03-05 00:14:00,40.9,39.0,30.09,ENE,76,0.0,0.0,93,0.00,,,0.00,WeatherCatV1.14B232,2013-03-05 08:14:00,
2013-03-05 00:19:00,40.7,38.8,30.09,ENE,76,0.0,0.0,93,0.00,,,0.00,WeatherCatV1.14B232,2013-03-05 08:19:00,
2013-03-05 00:24:00,40.7,39.1,30.09,ENE,76,0.0,0.0,94,0.00,,,0.00,WeatherCatV1.14B232,2013-03-05 08:24:00,
2013-03-05 00:29:00,40.7,38.8,30.09,ENE,76,0.0,0.0,93,0.00,,,0.00,WeatherCatV1.14B232,2013-03-05 08:29:00,
2013-03-05 00:34:00,40.5,38.6,30.09,ENE,76,0.0,0.0,93,0.00,,,0.00,WeatherCatV1.14B232,2013-03-05 08:34:00,
2013-03-05 00:39:00,40.4,38.5,30.09,ENE,76,0.0,0.0,93,0.00,,,0.00,WeatherCatV1.14B232,2013-03-05 08:39:00,
2013-03-05 00:42:00,40.3,38.4,30.09,ENE,76,0.0,0.0,93,0.00,,,0.00,WeatherCatV1.14B232,2013-03-05 08:42:00,
2013-03-05 00:47:00,40.2,38.6,30.09,ENE,76,0.0,0.0,94,0.00,,,0.00,WeatherCatV1.14B232,2013-03-05 08:47:00,
2013-03-05 00:52:00,40.2,38.6,30.09,ENE,76,0.0,0.0,94,0.00,,,0.00,WeatherCatV1.14B232,2013-03-05 08:52:00,
2013-03-05 00:57:00,40.0,38.4,30.09,ENE,76,0.0,0.0,94,0.00,,,0.00,WeatherCatV1.14B232,2013-03-05 08:57:00,
2013-03-05 01:02:00,39.9,38.3,30.09,ENE,76,0.0,0.0,94,0.00,,,0.00,WeatherCatV1.14B232,2013-03-05 09:02:00,
2013-03-05 01:07:00,39.8,38.2,30.09,ENE,76,0.0,0.0,94,0.00,,,0.00,WeatherCatV1.14B232,2013-03-05 09:07:00,
2013-03-05 01:12:00,39.7,38.1,30.09,ENE,76,0.0,0.0,94,0.00,,,0.00,WeatherCatV1.14B232,2013-03-05 09:12:00,
2013-03-05 01:17:00,39.5,37.9,30.09,ENE,76,0.0,0.0,94,0.00,,,0.00,WeatherCatV1.14B232,2013-03-05 09:17:00,
2013-03-05 01:22:00,39.3,38.0,30.09,ENE,75,0.0,0.0,95,0.00,,,0.00,WeatherCatV1.14B232,2013-03-05 09:22:00,
2013-03-05 01:27:00,39.4,38.1,30.09,ENE,76,0.0,0.0,95,0.00,,,0.00,WeatherCatV1.14B232,2013-03-05 09:27:00,
2013-03-05 01:32:00,39.4,38.1,30.09,ENE,76,0.0,0.0,95,0.00,,,0.00,WeatherCatV1.14B232,2013-03-05 09:32:00,
2013-03-05 01:37:00,39.6,38.3,30.09,ENE,76,0.0,0.0,95,0.00,,,0.00,WeatherCatV1.14B232,2013-03-05 09:37:00,
2013-03-05 01:42:00,39.5,37.9,30.09,ENE,76,0.0,0.0,94,0.00,,,0.00,WeatherCatV1.14B232,2013-03-05 09:42:00,
2013-03-05 01:47:00,39.4,37.8,30.09,ENE,76,0.0,0.0,94,0.00,,,0.00,WeatherCatV1.14B232,2013-03-05 09:47:00,
2013-03-05 01:52:00,39.4,38.1,30.09,ENE,76,0.0,0.0,95,0.00,,,0.00,WeatherCatV1.14B232,2013-03-05 09:52:00,
2013-03-05 01:57:00,39.3,37.7,30.09,ENE,76,0.0,0.0,94,0.00,,,0.00,WeatherCatV1.14B232,2013-03-05 09:57:00,
2013-03-05 02:02:00,39.2,37.6,30.09,ENE,76,0.0,0.0,94,0.00,,,0.00,WeatherCatV1.14B232,2013-03-05 10:02:00,
2013-03-05 02:07:00,39.0,37.7,30.09,ENE,76,0.0,0.0,95,0.00,,,0.00,WeatherCatV1.14B232,2013-03-05 10:07:00,
2013-03-05 02:12:00,38.9,37.6,30.09,ENE,75,0.0,0.0,95,0.00,,,0.00,WeatherCatV1.14B232,2013-03-05 10:12:00,
2013-03-05 02:17:00,38.9,37.6,30.09,ENE,76,0.0,0.0,95,0.00,,,0.00,WeatherCatV1.14B232,2013-03-05 10:17:00,
2013-03-05 02:22:00,38.9,37.6,30.09,ENE,75,0.0,0.0,95,0.00,,,0.00,WeatherCatV1.14B232,2013-03-05 10:22:00,
2013-03-05 02:27:00,39.1,37.8,30.09,ENE,65,0.0,0.0,95,0.00,,,0.00,WeatherCatV1.14B232,2013-03-05 10:27:00,
2013-03-05 02:32:00,39.4,38.1,30.09,ENE,65,0.0,0.0,95,0.00,,,0.00,WeatherCatV1.14B232,2013-03-05 10:32:00,
2013-03-05 02:37:00,39.6,38.3,30.09,ENE,65,0.0,0.0,95,0.00,,,0.00,WeatherCatV1.14B232,2013-03-05 10:37:00,
2013-03-05 02:42:00,39.7,38.1,30.10,ENE,65,0.0,0.0,94,0.00,,,0.00,WeatherCatV1.14B232,2013-03-05 10:42:00,
2013-03-05 02:47:00,39.7,38.1,30.09,ENE,65,0.0,0.0,94,0.00,,,0.00,WeatherCatV1.14B232,2013-03-05 10:47:00,
2013-03-05 02:52:00,39.4,37.8,30.09,ENE,66,0.0,0.0,94,0.00,,,0.00,WeatherCatV1.14B232,2013-03-05 10:52:00,
2013-03-05 02:57:00,39.2,37.6,30.09,ENE,67,0.0,0.0,94,0.00,,,0.00,WeatherCatV1.14B232,2013-03-05 10:57:00,
2013-03-05 03:02:00,39.0,37.7,30.09,ENE,66,0.0,0.0,95,0.00,,,0.00,WeatherCatV1.14B232,2013-03-05 11:02:00,
2013-03-05 03:07:00,38.9,37.6,30.09,ENE,67,0.0,0.0,95,0.00,,,0.00,WeatherCatV1.14B232,2013-03-05 11:07:00,
2013-03-05 03:12:00,39.0,37.7,30.09,ENE,66,0.0,0.0,95,0.00,,,0.00,WeatherCatV1.14B232,2013-03-05 11:12:00,
2013-03-05 03:17:00,39.1,37.8,30.09,ENE,67,0.0,0.0,95,0.00,,,0.00,WeatherCatV1.14B232,2013-03-05 11:17:00,
2013-03-05 03:22:00,39.3,38.0,30.09,ENE,66,0.0,0.0,95,0.00,,,0.00,WeatherCatV1.14B232,2013-03-05 11:22:00,
2013-03-05 03:27:00,39.8,38.8,30.10,ENE,66,0.0,0.0,96,0.00,,,0.00,WeatherCatV1.14B232,2013-03-05 11:27:00,
2013-03-05 03:32:00,40.3,39.3,30.10,ENE,66,0.0,0.0,96,0.00,,,0.00,WeatherCatV1.14B232,2013-03-05 11:32:00,
2013-03-05 03:37:00,40.9,39.6,30.10,ENE,65,0.0,0.0,95,0.00,,,0.00,WeatherCatV1.14B232,2013-03-05 11:37:00,
2013-03-05 03:42:00,41.2,39.6,30.10,ENE,65,0.0,0.0,94,0.00,,,0.00,WeatherCatV1.14B232,2013-03-05 11:42:00,
2013-03-05 03:47:00,41.6,40.0,30.09,ENE,67,0.0,1.0,94,0.00,,,0.00,WeatherCatV1.14B232,2013-03-05 11:47:00,
2013-03-05 03:52:00,41.8,40.2,30.09,East,96,0.0,0.0,94,0.00,,,0.00,WeatherCatV1.14B232,2013-03-05 11:52:00,
2013-03-05 03:57:00,41.9,40.3,30.09,East,96,0.0,0.0,94,0.00,,,0.00,WeatherCatV1.14B232,2013-03-05 11:57:00,
2013-03-05 04:02:00,42.2,40.6,30.09,East,96,0.0,0.0,94,0.00,,,0.00,WeatherCatV1.14B232,2013-03-05 12:02:00,
2013-03-05 04:07:00,42.2,40.3,30.09,East,96,0.0,0.0,93,0.00,,,0.00,WeatherCatV1.14B232,2013-03-05 12:07:00,
2013-03-05 04:12:00,42.3,40.4,30.09,East,96,0.0,0.0,93,0.00,,,0.00,WeatherCatV1.14B232,2013-03-05 12:12:00,
2013-03-05 04:17:00,42.4,40.5,30.09,East,96,0.0,0.0,93,0.00,,,0.00,WeatherCatV1.14B232,2013-03-05 12:17:00,
2013-03-05 04:22:00,42.4,40.5,30.09,East,96,0.0,0.0,93,0.00,,,0.00,WeatherCatV1.14B232,2013-03-05 12:22:00,
2013-03-05 04:27:00,42.5,40.6,30.09,SE,144,0.0,0.0,93,0.00,,,0.00,WeatherCatV1.14B232,2013-03-05 12:27:00,
2013-03-05 04:32:00,42.9,41.0,30.09,SE,132,0.0,0.0,93,0.00,,,0.00,WeatherCatV1.14B232,2013-03-05 12:32:00,
2013-03-05 04:37:00,42.9,40.5,30.09,SE,132,0.0,0.0,91,0.00,,,0.00,WeatherCatV1.14B232,2013-03-05 12:37:00,
2013-03-05 04:42:00,42.6,40.2,30.09,SE,132,0.0,0.0,91,0.00,,,0.00,WeatherCatV1.14B232,2013-03-05 12:42:00,
2013-03-05 04:47:00,42.6,40.2,30.09,SE,133,0.0,0.0,91,0.00,,,0.00,WeatherCatV1.14B232,2013-03-05 12:47:00,
2013-03-05 04:52:00,42.8,40.4,30.10,SE,134,0.0,0.0,91,0.00,,,0.00,WeatherCatV1.14B232,2013-03-05 12:52:00,
2013-03-05 04:57:00,43.1,40.7,30.10,SE,134,0.0,0.0,91,0.00,,,0.00,WeatherCatV1.14B232,2013-03-05 12:57:00,
2013-03-05 05:02:00,43.4,40.7,30.10,WSW,244,0.0,0.0,90,0.00,,,0.00,WeatherCatV1.14B232,2013-03-05 13:02:00,
2013-03-05 05:06:00,43.5,40.5,30.10,West,261,0.0,0.0,89,0.00,,,0.00,WeatherCatV1.14B232,2013-03-05 13:06:00,
2013-03-05 05:12:00,43.4,40.4,30.10,West,261,0.0,0.0,89,0.00,,,0.00,WeatherCatV1.14B232,2013-03-05 13:12:00,
2013-03-05 05:16:00,43.4,40.4,30.10,West,261,0.0,0.0,89,0.00,,,0.00,WeatherCatV1.14B232,2013-03-05 13:16:00,
2013-03-05 05:21:00,43.4,40.4,30.10,West,261,0.0,0.0,89,0.00,,,0.00,WeatherCatV1.14B232,2013-03-05 13:21:00,
2013-03-05 05:26:00,43.4,40.4,30.10,WSW,257,0.0,0.0,89,0.00,,,0.00,WeatherCatV1.14B232,2013-03-05 13:26:00,
2013-03-05 05:31:00,43.4,40.4,30.10,West,261,0.0,0.0,89,0.00,,,0.00,WeatherCatV1.14B232,2013-03-05 13:31:00,
2013-03-05 05:36:00,43.5,40.2,30.10,West,261,0.0,0.0,88,0.00,,,0.00,WeatherCatV1.14B232,2013-03-05 13:36:00,
2013-03-05 05:41:00,43.5,40.5,30.10,West,261,0.0,0.0,89,0.00,,,0.00,WeatherCatV1.14B232,2013-03-05 13:41:00,
2013-03-05 05:46:00,43.4,40.4,30.09,West,261,0.0,0.0,89,0.00,,,0.00,WeatherCatV1.14B232,2013-03-05 13:46:00,
2013-03-05 05:51:00,43.4,40.4,30.09,SSW,202,0.0,0.0,89,0.00,,,0.00,WeatherCatV1.14B232,2013-03-05 13:51:00,
2013-03-05 05:56:00,43.4,40.4,30.09,SSW,202,0.0,0.0,89,0.00,,,0.00,WeatherCatV1.14B232,2013-03-05 13:56:00,
2013-03-05 06:01:00,43.4,40.1,30.09,SSW,213,0.0,0.0,88,0.00,,,0.00,WeatherCatV1.14B232,2013-03-05 14:01:00,
2013-03-05 06:06:00,43.4,40.1,30.09,SSW,213,0.0,0.0,88,0.00,,,0.00,WeatherCatV1.14B232,2013-03-05 14:06:00,
2013-03-05 06:11:00,43.2,39.9,30.09,SSW,213,0.0,0.0,88,0.00,,,0.00,WeatherCatV1.14B232,2013-03-05 14:11:00,
2013-03-05 06:16:00,43.2,39.9,30.09,SE,128,0.0,0.0,88,0.00,,,0.00,WeatherCatV1.14B232,2013-03-05 14:16:00,
2013-03-05 06:21:00,43.0,39.7,30.09,SE,129,0.0,0.0,88,0.00,,,0.00,WeatherCatV1.14B232,2013-03-05 14:21:00,
2013-03-05 06:26:00,42.9,39.6,30.09,SE,137,0.0,0.0,88,0.00,,,0.00,WeatherCatV1.14B232,2013-03-05 14:26:00,
2013-03-05 06:31:00,42.9,39.6,30.09,SE,136,0.0,0.0,88,0.00,,,0.00,WeatherCatV1.14B232,2013-03-05 14:31:00,
2013-03-05 06:36:00,42.7,39.4,30.09,SE,136,0.0,0.0,88,0.00,,,0.00,WeatherCatV1.14B232,2013-03-05 14:36:00,
2013-03-05 06:41:00,42.6,39.3,30.09,SE,136,0.0,0.0,88,0.00,,,0.00,WeatherCatV1.14B232,2013-03-05 14:41:00,
2013-03-05 06:46:00,42.8,39.5,30.09,SE,136,0.0,0.0,88,0.00,,,0.00,WeatherCatV1.14B232,2013-03-05 14:46:00,
2013-03-05 06:51:00,42.8,39.5,30.09,SE,136,0.0,0.0,88,0.00,,,0.00,WeatherCatV1.14B232,2013-03-05 14:51:00,
2013-03-05 06:56:00,42.8,39.5,30.10,SE,136,0.0,0.0,88,0.00,,,0.00,WeatherCatV1.14B232,2013-03-05 14:56:00,
2013-03-05 07:01:00,43.0,39.7,30.10,SW,223,0.0,0.0,88,0.00,,,0.00,WeatherCatV1.14B232,2013-03-05 15:01:00,
2013-03-05 07:06:00,43.2,39.6,30.10,SW,223,0.0,0.0,87,0.00,,,0.00,WeatherCatV1.14B232,2013-03-05 15:06:00,
2013-03-05 07:11:00,43.4,39.5,30.10,SW,223,0.0,0.0,86,0.00,,,0.00,WeatherCatV1.14B232,2013-03-05 15:11:00,
2013-03-05 07:16:00,43.5,39.6,30.10,ESE,120,0.0,0.0,86,0.00,,,0.00,WeatherCatV1.14B232,2013-03-05 15:16:00,
2013-03-05 07:21:00,43.8,39.6,30.10,ESE,120,0.0,0.0,85,0.00,,,0.00,WeatherCatV1.14B232,2013-03-05 15:21:00,
2013-03-05 07:26:00,44.1,39.9,30.10,SE,145,0.0,0.0,85,0.00,,,0.00,WeatherCatV1.14B232,2013-03-05 15:26:00,
2013-03-05 07:31:00,44.5,40.0,30.10,SE,132,0.0,0.0,84,0.00,,,0.00,WeatherCatV1.14B232,2013-03-05 15:31:00,
2013-03-05 07:36:00,44.9,39.7,30.09,SE,134,0.0,1.0,82,0.00,,,0.00,WeatherCatV1.14B232,2013-03-05 15:36:00,
2013-03-05 07:41:00,45.4,39.9,30.09,SE,126,0.0,1.0,81,0.00,,,0.00,WeatherCatV1.14B232,2013-03-05 15:41:00,
2013-03-05 07:46:00,46.1,40.6,30.09,SE,127,0.0,0.0,81,0.00,,,0.00,WeatherCatV1.14B232,2013-03-05 15:46:00,
2013-03-05 07:51:00,46.9,40.7,30.09,East,101,0.0,0.0,79,0.00,,,0.00,WeatherCatV1.14B232,2013-03-05 15:51:00,
2013-03-05 07:56:00,47.0,40.5,30.08,East,101,0.0,0.0,78,0.00,,,0.00,WeatherCatV1.14B232,2013-03-05 15:56:00,
2013-03-05 08:01:00,48.4,41.5,30.08,SE,142,0.0,1.0,77,0.00,,,0.00,WeatherCatV1.14B232,2013-03-05 16:01:00,
2013-03-05 08:06:00,49.0,42.1,30.08,SE,146,0.0,2.0,77,0.00,,,0.00,WeatherCatV1.14B232,2013-03-05 16:06:00,
2013-03-05 08:11:00,49.5,42.6,30.08,SE,135,1.0,1.0,77,0.00,,,0.00,WeatherCatV1.14B232,2013-03-05 16:11:00,
2013-03-05 08:16:00,49.6,42.7,30.08,South,175,1.0,2.0,77,0.00,,,0.00,WeatherCatV1.14B232,2013-03-05 16:16:00,
2013-03-05 08:21:00,49.8,42.9,30.08,WSW,244,0.0,2.0,77,0.00,,,0.00,WeatherCatV1.14B232,2013-03-05 16:21:00,
2013-03-05 08:26:00,50.5,43.9,30.08,SSE,150,0.0,0.0,78,0.00,,,0.00,WeatherCatV1.14B232,2013-03-05 16:26:00,
2013-03-05 08:31:00,51.3,44.0,30.08,East,100,0.0,4.0,76,0.00,,,0.00,WeatherCatV1.14B232,2013-03-05 16:31:00,
2013-03-05 08:36:00,51.1,43.1,30.08,NE,40,0.0,2.0,74,0.00,,,0.00,WeatherCatV1.14B232,2013-03-05 16:36:00,
2013-03-05 08:41:00,51.3,43.3,30.08,ENE,71,2.0,2.0,74,0.00,,,0.00,WeatherCatV1.14B232,2013-03-05 16:41:00,
2013-03-05 08:46:00,51.5,43.1,30.08,NE,55,0.0,5.0,73,0.00,,,0.00,WeatherCatV1.14B232,2013-03-05 16:46:00,
2013-03-05 08:51:00,51.7,43.0,30.07,ENE,71,0.0,3.0,72,0.00,,,0.00,WeatherCatV1.14B232,2013-03-05 16:51:00,
2013-03-05 08:56:00,51.9,42.4,30.07,East,98,0.0,1.0,70,0.00,,,0.00,WeatherCatV1.14B232,2013-03-05 16:56:00,
2013-03-05 09:01:00,51.9,42.1,30.07,SE,139,1.0,2.0,69,0.00,,,0.00,WeatherCatV1.14B232,2013-03-05 17:01:00,
2013-03-05 09:06:00,52.1,42.2,30.07,SSE,155,0.0,2.0,69,0.00,,,0.00,WeatherCatV1.14B232,2013-03-05 17:06:00,
2013-03-05 09:11:00,52.6,42.0,30.07,SE,146,4.0,4.0,67,0.00,,,0.00,WeatherCatV1.14B232,2013-03-05 17:11:00,
2013-03-05 09:16:00,52.9,41.9,30.06,SE,132,0.0,1.0,66,0.00,,,0.00,WeatherCatV1.14B232,2013-03-05 17:16:00,
2013-03-05 09:21:00,53.2,40.9,30.06,East,84,2.0,5.0,63,0.00,,,0.00,WeatherCatV1.14B232,2013-03-05 17:21:00,
2013-03-05 09:26:00,53.4,41.1,30.06,SSE,157,0.0,2.0,63,0.00,,,0.00,WeatherCatV1.14B232,2013-03-05 17:26:00,
2013-03-05 09:31:00,54.0,40.9,30.06,NE,43,1.0,3.0,61,0.00,,,0.00,WeatherCatV1.14B232,2013-03-05 17:31:00,
2013-03-05 09:36:00,54.3,40.7,30.06,ESE,107,2.0,2.0,60,0.00,,,0.00,WeatherCatV1.14B232,2013-03-05 17:36:00,
2013-03-05 09:41:00,54.5,40.5,30.06,SE,134,0.0,0.0,59,0.00,,,0.00,WeatherCatV1.14B232,2013-03-05 17:41:00,
2013-03-05 09:46:00,55.2,40.7,30.06,ESE,122,0.0,2.0,58,0.00,,,0.00,WeatherCatV1.14B232,2013-03-05 17:46:00,
2013-03-05 09:51:00,55.3,40.8,30.06,ESE,107,0.0,0.0,58,0.00,,,0.00,WeatherCatV1.14B232,2013-03-05 17:51:00,
2013-03-05 09:56:00,55.2,40.2,30.06,NNE,30,0.0,0.0,57,0.00,,,0.00,WeatherCatV1.14B232,2013-03-05 17:56:00,
2013-03-05 10:01:00,55.1,40.1,30.06,West,275,0.0,0.0,57,0.00,,,0.00,WeatherCatV1.14B232,2013-03-05 18:01:00,
2013-03-05 10:06:00,55.4,40.9,30.06,SE,141,2.0,3.0,58,0.00,,,0.00,WeatherCatV1.14B232,2013-03-05 18:06:00,
2013-03-05 10:11:00,55.5,41.0,30.06,ESE,123,0.0,3.0,58,0.00,,,0.00,WeatherCatV1.14B232,2013-03-05 18:11:00,
2013-03-05 10:16:00,55.8,40.8,30.06,ENE,62,0.0,5.0,57,0.00,,,0.00,WeatherCatV1.14B232,2013-03-05 18:16:00,
2013-03-05 10:21:00,56.3,41.3,30.06,WSW,252,1.0,3.0,57,0.00,,,0.00,WeatherCatV1.14B232,2013-03-05 18:21:00,
2013-03-05 10:26:00,56.7,42.1,30.06,WSW,242,0.0,2.0,58,0.00,,,0.00,WeatherCatV1.14B232,2013-03-05 18:26:00,
2013-03-05 10:31:00,57.1,42.5,30.05,NNE,15,0.0,2.0,58,0.00,,,0.00,WeatherCatV1.14B232,2013-03-05 18:31:00,
2013-03-05 10:36:00,57.8,42.2,30.05,East,101,1.0,1.0,56,0.00,,,0.00,WeatherCatV1.14B232,2013-03-05 18:36:00,
2013-03-05 10:41:00,57.8,41.3,30.05,West,261,0.0,1.0,54,0.00,,,0.00,WeatherCatV1.14B232,2013-03-05 18:41:00,
2013-03-05 10:46:00,58.1,42.0,30.05,NE,50,0.0,3.0,55,0.00,,,0.00,WeatherCatV1.14B232,2013-03-05 18:46:00,
2013-03-05 10:51:00,58.2,42.1,30.05,NNW,340,3.0,4.0,55,0.00,,,0.00,WeatherCatV1.14B232,2013-03-05 18:51:00,
2013-03-05 10:56:00,58.3,42.7,30.05,WSW,249,0.0,1.0,56,0.00,,,0.00,WeatherCatV1.14B232,2013-03-05 18:56:00,
2013-03-05 10:58:00,58.3,41.7,30.05,West,265,0.0,2.0,54,0.00,,,0.00,WeatherCatV1.14B232,2013-03-05 18:58:00,
2013-03-05 10:59:00,58.2,41.6,30.05,West,281,1.0,2.0,54,0.00,,,0.00,WeatherCatV1.14B232,2013-03-05 18:59:00,
2013-03-05 11:04:00,58.5,42.4,30.04,SW,232,0.0,2.0,55,0.00,,,0.00,WeatherCatV1.14B232,2013-03-05 19:04:00,
2013-03-05 11:09:00,59.2,42.6,30.04,WNW,285,1.0,3.0,54,0.00,,,0.00,WeatherCatV1.14B232,2013-03-05 19:09:00,
2013-03-05 11:14:00,59.9,43.2,30.04,West,267,0.0,2.0,54,0.00,,,0.00,WeatherCatV1.14B232,2013-03-05 19:14:00,
2013-03-05 11:19:00,60.1,42.4,30.04,SE,139,0.0,3.0,52,0.00,,,0.00,WeatherCatV1.14B232,2013-03-05 19:19:00,
2013-03-05 11:24:00,61.2,43.4,30.03,SW,217,0.0,2.0,52,0.00,,,0.00,WeatherCatV1.14B232,2013-03-05 19:24:00,
2013-03-05 11:29:00,61.2,41.9,30.04,SE,128,0.0,6.0,49,0.00,,,0.00,WeatherCatV1.14B232,2013-03-05 19:29:00,
2013-03-05 11:33:00,61.0,41.7,30.03,WNW,285,3.0,6.0,49,0.00,,,0.00,WeatherCatV1.14B232,2013-03-05 19:33:00,
2013-03-05 11:38:00,60.7,43.0,30.04,WNW,300,3.0,3.0,52,0.00,,,0.00,WeatherCatV1.14B232,2013-03-05 19:38:00,
2013-03-05 11:43:00,61.1,42.3,30.03,West,267,1.0,1.0,50,0.00,,,0.00,WeatherCatV1.14B232,2013-03-05 19:43:00,
2013-03-05 11:48:00,61.0,42.2,30.03,West,265,0.0,2.0,50,0.00,,,0.00,WeatherCatV1.14B232,2013-03-05 19:48:00,
2013-03-05 11:53:00,61.0,42.2,30.03,SE,135,1.0,3.0,50,0.00,,,0.00,WeatherCatV1.14B232,2013-03-05 19:53:00,
2013-03-05 11:58:00,61.3,42.5,30.03,WSW,244,0.0,3.0,50,0.00,,,0.00,WeatherCatV1.14B232,2013-03-05 19:58:00,
2013-03-05 12:03:00,61.0,41.7,30.03,WSW,254,0.0,2.0,49,0.00,,,0.00,WeatherCatV1.14B232,2013-03-05 20:03:00,
2013-03-05 12:08:00,60.8,42.6,30.03,ESE,115,0.0,4.0,51,0.00,,,0.00,WeatherCatV1.14B232,2013-03-05 20:08:00,
2013-03-05 12:13:00,60.9,42.1,30.03,SSE,160,5.0,5.0,50,0.00,,,0.00,WeatherCatV1.14B232,2013-03-05 20:13:00,
2013-03-05 12:18:00,60.2,41.5,30.02,SW,232,2.0,2.0,50,0.00,,,0.00,WeatherCatV1.14B232,2013-03-05 20:18:00,
2013-03-05 12:23:00,60.2,42.0,30.02,WSW,251,2.0,3.0,51,0.00,,,0.00,WeatherCatV1.14B232,2013-03-05 20:23:00,
2013-03-05 12:28:00,59.5,42.4,30.02,SW,236,3.0,6.0,53,0.00,,,0.00,WeatherCatV1.14B232,2013-03-05 20:28:00,
2013-03-05 12:33:00,59.0,42.4,30.02,SW,236,8.0,10.0,54,0.00,,,0.00,WeatherCatV1.14B232,2013-03-05 20:33:00,
2013-03-05 12:38:00,61.2,41.9,30.01,WNW,300,2.0,7.0,49,0.00,,,0.00,WeatherCatV1.14B232,2013-03-05 20:38:00,
2013-03-05 12:43:00,59.8,42.1,30.01,WSW,252,0.0,14.0,52,0.00,,,0.00,WeatherCatV1.14B232,2013-03-05 20:43:00,
2013-03-05 12:48:00,60.4,42.7,30.01,West,276,6.0,10.0,52,0.00,,,0.00,WeatherCatV1.14B232,2013-03-05 20:48:00,
2013-03-05 12:53:00,59.0,41.4,30.01,WNW,295,5.0,9.0,52,0.00,,,0.00,WeatherCatV1.14B232,2013-03-05 20:53:00,
2013-03-05 12:58:00,59.1,41.0,30.01,South,186,10.0,10.0,51,0.00,,,0.00,WeatherCatV1.14B232,2013-03-05 20:58:00,
2013-03-05 13:03:00,59.6,41.4,30.01,WNW,288,3.0,4.0,51,0.00,,,0.00,WeatherCatV1.14B232,2013-03-05 21:03:00,
2013-03-05 13:08:00,59.0,41.4,30.01,WSW,238,2.0,13.0,52,0.00,,,0.00,WeatherCatV1.14B232,2013-03-05 21:08:00,
2013-03-05 13:13:00,58.8,41.7,30.00,WNW,284,5.0,16.0,53,0.00,,,0.00,WeatherCatV1.14B232,2013-03-05 21:13:00,
2013-03-05 13:18:00,59.6,42.4,30.00,SW,218,1.0,6.0,53,0.00,,,0.00,WeatherCatV1.14B232,2013-03-05 21:18:00,
2013-03-05 13:23:00,60.5,42.3,30.00,West,272,2.0,3.0,51,0.00,,,0.00,WeatherCatV1.14B232,2013-03-05 21:23:00,
2013-03-05 13:28:00,60.0,41.8,30.00,West,271,4.0,7.0,51,0.00,,,0.00,WeatherCatV1.14B232,2013-03-05 21:28:00,
2013-03-05 13:33:00,59.9,41.7,30.00,WSW,242,3.0,8.0,51,0.00,,,0.00,WeatherCatV1.14B232,2013-03-05 21:33:00,
2013-03-05 13:38:00,59.3,41.7,29.99,NNW,341,4.0,7.0,52,0.00,,,0.00,WeatherCatV1.14B232,2013-03-05 21:38:00,
2013-03-05 13:43:00,59.0,41.4,29.99,SSW,211,3.0,7.0,52,0.00,,,0.00,WeatherCatV1.14B232,2013-03-05 21:43:00,
2013-03-05 13:48:00,59.8,41.6,29.99,West,267,2.0,7.0,51,0.00,,,0.00,WeatherCatV1.14B232,2013-03-05 21:48:00,
2013-03-05 13:53:00,59.8,42.1,29.99,East,96,1.0,5.0,52,0.00,,,0.00,WeatherCatV1.14B232,2013-03-05 21:53:00,
2013-03-05 13:58:00,59.8,41.6,29.99,SW,232,3.0,7.0,51,0.00,,,0.00,WeatherCatV1.14B232,2013-03-05 21:58:00,
2013-03-05 14:03:00,59.0,40.9,29.99,SSW,193,2.0,7.0,51,0.00,,,0.00,WeatherCatV1.14B232,2013-03-05 22:03:00,
2013-03-05 14:08:00,59.3,41.7,29.99,SSW,207,4.0,4.0,52,0.00,,,0.00,WeatherCatV1.14B232,2013-03-05 22:08:00,
2013-03-05 14:13:00,59.4,41.3,29.99,SW,221,4.0,5.0,51,0.00,,,0.00,WeatherCatV1.14B232,2013-03-05 22:13:00,
2013-03-05 14:18:00,59.0,41.4,29.99,SW,214,3.0,6.0,52,0.00,,,0.00,WeatherCatV1.14B232,2013-03-05 22:18:00,
2013-03-05 14:23:00,59.0,41.9,29.99,NE,52,2.0,4.0,53,0.00,,,0.00,WeatherCatV1.14B232,2013-03-05 22:23:00,
2013-03-05 14:28:00,59.0,41.9,29.99,West,262,2.0,4.0,53,0.00,,,0.00,WeatherCatV1.14B232,2013-03-05 22:28:00,
2013-03-05 14:33:00,59.0,41.4,29.99,West,270,1.0,2.0,52,0.00,,,0.00,WeatherCatV1.14B232,2013-03-05 22:33:00,
2013-03-05 14:38:00,59.5,41.9,29.99,SSW,205,4.0,7.0,52,0.00,,,0.00,WeatherCatV1.14B232,2013-03-05 22:38:00,
2013-03-05 14:43:00,59.6,41.4,29.98,SW,230,4.0,7.0,51,0.00,,,0.00,WeatherCatV1.14B232,2013-03-05 22:43:00,
2013-03-05 14:48:00,59.6,41.4,29.98,WSW,242,2.0,7.0,51,0.00,,,0.00,WeatherCatV1.14B232,2013-03-05 22:48:00,
2013-03-05 14:53:00,58.6,40.5,29.98,SSE,163,1.0,10.0,51,0.00,,,0.00,WeatherCatV1.14B232,2013-03-05 22:53:00,
2013-03-05 14:58:00,58.6,41.5,29.98,SSW,199,3.0,3.0,53,0.00,,,0.00,WeatherCatV1.14B232,2013-03-05 22:58:00,
2013-03-05 15:03:00,58.9,41.8,29.98,SSW,213,0.0,2.0,53,0.00,,,0.00,WeatherCatV1.14B232,2013-03-05 23:03:00,
2013-03-05 15:08:00,58.8,41.2,29.98,South,174,2.0,9.0,52,0.00,,,0.00,WeatherCatV1.14B232,2013-03-05 23:08:00,
2013-03-05 15:13:00,57.7,40.7,29.98,SW,227,2.0,5.0,53,0.00,,,0.00,WeatherCatV1.14B232,2013-03-05 23:13:00,
2013-03-05 15:18:00,57.7,40.7,29.98,SW,220,9.0,13.0,53,0.00,,,0.00,WeatherCatV1.14B232,2013-03-05 23:18:00,
2013-03-05 15:23:00,57.3,40.8,29.99,SW,220,4.0,4.0,54,0.00,,,0.00,WeatherCatV1.14B232,2013-03-05 23:23:00,
2013-03-05 15:28:00,57.4,40.9,29.99,SSE,155,1.0,2.0,54,0.00,,,0.00,WeatherCatV1.14B232,2013-03-05 23:28:00,
2013-03-05 15:33:00,57.4,40.4,29.99,SSW,204,0.0,3.0,53,0.00,,,0.00,WeatherCatV1.14B232,2013-03-05 23:33:00,
2013-03-05 15:38:00,57.5,40.5,29.99,SSE,165,1.0,12.0,53,0.00,,,0.00,WeatherCatV1.14B232,2013-03-05 23:38:00,
2013-03-05 15:43:00,57.4,40.4,29.98,SSW,205,3.0,10.0,53,0.00,,,0.00,WeatherCatV1.14B232,2013-03-05 23:43:00,
2013-03-05 15:48:00,57.4,40.4,29.98,SSW,196,0.0,7.0,53,0.00,,,0.00,WeatherCatV1.14B232,2013-03-05 23:48:00,
2013-03-05 15:53:00,57.3,40.8,29.98,South,182,2.0,6.0,54,0.00,,,0.00,WeatherCatV1.14B232,2013-03-05 23:53:00,
2013-03-05 15:58:00,57.2,41.2,29.98,South,169,3.0,11.0,55,0.00,,,0.00,WeatherCatV1.14B232,2013-03-05 23:58:00,
2013-03-05 16:03:00,57.0,41.0,29.97,SW,229,2.0,6.0,55,0.00,,,0.00,WeatherCatV1.14B232,2013-03-06 00:03:00,
2013-03-05 16:08:00,56.8,41.3,29.97,South,182,1.0,4.0,56,0.00,,,0.00,WeatherCatV1.14B232,2013-03-06 00:08:00,
2013-03-05 16:13:00,56.7,41.2,29.97,SE,125,4.0,5.0,56,0.00,,,0.00,WeatherCatV1.14B232,2013-03-06 00:13:00,
2013-03-05 16:18:00,56.6,41.1,29.97,SSE,157,2.0,4.0,56,0.00,,,0.00,WeatherCatV1.14B232,2013-03-06 00:18:00,
2013-03-05 16:23:00,56.5,41.5,29.96,East,98,0.0,3.0,57,0.00,,,0.00,WeatherCatV1.14B232,2013-03-06 00:23:00,
2013-03-05 16:28:00,56.5,41.5,29.96,SE,143,0.0,7.0,57,0.00,,,0.00,WeatherCatV1.14B232,2013-03-06 00:28:00,
2013-03-05 16:33:00,56.4,41.4,29.96,ESE,103,3.0,7.0,57,0.00,,,0.00,WeatherCatV1.14B232,2013-03-06 00:33:00,
2013-03-05 16:38:00,56.1,42.0,29.96,SSE,165,0.0,0.0,59,0.00,,,0.00,WeatherCatV1.14B232,2013-03-06 00:38:00,
2013-03-05 16:43:00,55.8,41.7,29.95,West,261,0.0,2.0,59,0.00,,,0.00,WeatherCatV1.14B232,2013-03-06 00:43:00,
2013-03-05 16:48:00,55.7,42.0,29.95,SSW,207,0.0,0.0,60,0.00,,,0.00,WeatherCatV1.14B232,2013-03-06 00:48:00,
2013-03-05 16:53:00,55.7,42.0,29.94,SSW,207,0.0,0.0,60,0.00,,,0.00,WeatherCatV1.14B232,2013-03-06 00:53:00,
2013-03-05 16:58:00,-999.0,-99.9,29.95,North,-999,-999.0,0.0,-999,0.00,,,0.00,WeatherCatV1.14B232,2013-03-06 00:58:00,
2013-03-05 17:03:00,-999.0,-99.9,29.95,North,-999,-999.0,0.0,-999,0.00,,,0.00,WeatherCatV1.14B232,2013-03-06 01:03:00,
2013-03-05 17:08:00,-999.0,-99.9,29.95,North,-999,-999.0,0.0,-999,0.00,,,0.00,WeatherCatV1.14B232,2013-03-06 01:08:00,
2013-03-05 17:13:00,-999.0,-99.9,29.94,North,-999,-999.0,0.0,-999,0.00,,,0.00,WeatherCatV1.14B232,2013-03-06 01:13:00,
2013-03-05 17:18:00,-999.0,-99.9,29.94,North,-999,-999.0,0.0,-999,0.00,,,0.00,WeatherCatV1.14B232,2013-03-06 01:18:00,
2013-03-05 17:23:00,-999.0,-99.9,29.94,North,-999,-999.0,0.0,-999,0.00,,,0.00,WeatherCatV1.14B232,2013-03-06 01:23:00,
2013-03-05 17:28:00,-999.0,-99.9,29.93,North,-999,-999.0,0.0,-999,0.00,,,0.00,WeatherCatV1.14B232,2013-03-06 01:28:00,
2013-03-05 17:33:00,-999.0,-99.9,29.93,North,-999,-999.0,0.0,-999,0.00,,,0.00,WeatherCatV1.14B232,2013-03-06 01:33:00,
2013-03-05 17:38:00,-999.0,-99.9,29.93,North,-999,-999.0,0.0,-999,0.00,,,0.00,WeatherCatV1.14B232,2013-03-06 01:38:00,
2013-03-05 17:43:00,-999.0,-99.9,29.93,North,-999,-999.0,0.0,-999,0.00,,,0.00,WeatherCatV1.14B232,2013-03-06 01:43:00,
2013-03-05 17:48:00,-999.0,-99.9,29.93,North,-999,-999.0,0.0,-999,0.00,,,0.00,WeatherCatV1.14B232,2013-03-06 01:48:00,
2013-03-05 17:53:00,-999.0,-99.9,29.92,North,-999,-999.0,0.0,-999,0.00,,,0.00,WeatherCatV1.14B232,2013-03-06 01:53:00,
2013-03-05 17:58:00,-999.0,-99.9,29.92,North,-999,-999.0,0.0,-999,0.00,,,0.00,WeatherCatV1.14B232,2013-03-06 01:58:00,
2013-03-05 18:03:00,-999.0,-99.9,29.92,North,-999,-999.0,0.0,-999,0.00,,,0.00,WeatherCatV1.14B232,2013-03-06 02:03:00,
2013-03-05 18:08:00,-999.0,-99.9,29.92,North,-999,-999.0,0.0,-999,0.00,,,0.00,WeatherCatV1.14B232,2013-03-06 02:08:00,
2013-03-05 18:13:00,-999.0,-99.9,29.92,North,-999,-999.0,0.0,-999,0.00,,,0.00,WeatherCatV1.14B232,2013-03-06 02:13:00,
2013-03-05 18:18:00,-999.0,-99.9,29.92,North,-999,-999.0,0.0,-999,0.00,,,0.00,WeatherCatV1.14B232,2013-03-06 02:18:00,
2013-03-05 18:23:00,-999.0,-99.9,29.92,North,-999,-999.0,0.0,-999,0.00,,,0.00,WeatherCatV1.14B232,2013-03-06 02:23:00,
2013-03-05 18:28:00,-999.0,-99.9,29.93,North,-999,-999.0,0.0,-999,0.00,,,0.00,WeatherCatV1.14B232,2013-03-06 02:28:00,
2013-03-05 18:33:00,-999.0,-99.9,29.92,North,-999,-999.0,0.0,-999,0.00,,,0.00,WeatherCatV1.14B232,2013-03-06 02:33:00,
2013-03-05 18:37:00,-999.0,-99.9,29.92,North,-999,-999.0,0.0,-999,0.00,,,0.00,WeatherCatV1.14B232,2013-03-06 02:37:00,
2013-03-05 18:42:00,-999.0,-99.9,29.93,North,-999,-999.0,0.0,-999,0.00,,,0.00,WeatherCatV1.14B232,2013-03-06 02:42:00,
2013-03-05 18:47:00,-999.0,-99.9,29.93,North,-999,-999.0,0.0,-999,0.00,,,0.00,WeatherCatV1.14B232,2013-03-06 02:47:00,
2013-03-05 18:52:00,-999.0,-99.9,29.92,North,-999,-999.0,0.0,-999,0.00,,,0.00,WeatherCatV1.14B232,2013-03-06 02:52:00,
2013-03-05 18:57:00,-999.0,-99.9,29.93,North,-999,-999.0,0.0,-999,0.00,,,0.00,WeatherCatV1.14B232,2013-03-06 02:57:00,
2013-03-05 19:02:00,-999.0,-99.9,29.93,North,-999,-999.0,0.0,-999,0.00,,,0.00,WeatherCatV1.14B232,2013-03-06 03:02:00,
2013-03-05 19:07:00,-999.0,-99.9,29.93,North,-999,-999.0,0.0,-999,0.00,,,0.00,WeatherCatV1.14B232,2013-03-06 03:07:00,
2013-03-05 19:12:00,-999.0,-99.9,29.93,North,-999,-999.0,0.0,-999,0.00,,,0.00,WeatherCatV1.14B232,2013-03-06 03:12:00,
2013-03-05 19:17:00,-999.0,-99.9,29.93,North,-999,-999.0,0.0,-999,0.00,,,0.00,WeatherCatV1.14B232,2013-03-06 03:17:00,
2013-03-05 19:22:00,-999.0,-99.9,29.92,North,-999,-999.0,0.0,-999,0.00,,,0.00,WeatherCatV1.14B232,2013-03-06 03:22:00,
2013-03-05 19:27:00,-999.0,-99.9,29.92,North,-999,-999.0,0.0,-999,0.00,,,0.00,WeatherCatV1.14B232,2013-03-06 03:27:00,
2013-03-05 19:32:00,-999.0,-99.9,29.92,North,-999,-999.0,0.0,-999,0.00,,,0.00,WeatherCatV1.14B232,2013-03-06 03:32:00,
2013-03-05 19:37:00,-999.0,-99.9,29.92,North,-999,-999.0,0.0,-999,0.00,,,0.00,WeatherCatV1.14B232,2013-03-06 03:37:00,
2013-03-05 19:42:00,-999.0,-99.9,29.92,North,-999,-999.0,0.0,-999,0.00,,,0.00,WeatherCatV1.14B232,2013-03-06 03:42:00,
2013-03-05 19:47:00,-999.0,-99.9,29.92,North,-999,-999.0,0.0,-999,0.00,,,0.00,WeatherCatV1.14B232,2013-03-06 03:47:00,
2013-03-05 19:52:00,-999.0,-99.9,29.91,North,-999,-999.0,0.0,-999,0.00,,,0.00,WeatherCatV1.14B232,2013-03-06 03:52:00,
2013-03-05 19:57:00,-999.0,-99.9,29.92,North,-999,-999.0,0.0,-999,0.00,,,0.00,WeatherCatV1.14B232,2013-03-06 03:57:00,
2013-03-05 20:02:00,-999.0,-99.9,29.92,North,-999,-999.0,0.0,-999,0.00,,,0.00,WeatherCatV1.14B232,2013-03-06 04:02:00,
2013-03-05 20:07:00,-999.0,-99.9,29.91,North,-999,-999.0,0.0,-999,0.00,,,0.00,WeatherCatV1.14B232,2013-03-06 04:07:00,
2013-03-05 20:12:00,-999.0,-99.9,29.91,North,-999,-999.0,0.0,-999,0.00,,,0.00,WeatherCatV1.14B232,2013-03-06 04:12:00,
2013-03-05 20:17:00,-999.0,-99.9,29.91,North,-999,-999.0,0.0,-999,0.00,,,0.00,WeatherCatV1.14B232,2013-03-06 04:17:00,
2013-03-05 20:22:00,-999.0,-99.9,29.92,North,-999,-999.0,0.0,-999,0.00,,,0.00,WeatherCatV1.14B232,2013-03-06 04:22:00,
2013-03-05 20:27:00,-999.0,-99.9,29.91,North,-999,-999.0,0.0,-999,0.00,,,0.00,WeatherCatV1.14B232,2013-03-06 04:27:00,
2013-03-05 20:32:00,-999.0,-99.9,29.91,North,-999,-999.0,0.0,-999,0.00,,,0.00,WeatherCatV1.14B232,2013-03-06 04:32:00,
2013-03-05 20:37:00,-999.0,-99.9,29.91,North,-999,-999.0,0.0,-999,0.00,,,0.00,WeatherCatV1.14B232,2013-03-06 04:37:00,
2013-03-05 20:42:00,-999.0,-99.9,29.91,North,-999,-999.0,0.0,-999,0.00,,,0.00,WeatherCatV1.14B232,2013-03-06 04:42:00,
2013-03-05 20:47:00,-999.0,-99.9,29.90,North,-999,-999.0,0.0,-999,0.00,,,0.00,WeatherCatV1.14B232,2013-03-06 04:47:00,
2013-03-05 20:52:00,-999.0,-99.9,29.90,North,-999,-999.0,0.0,-999,0.00,,,0.00,WeatherCatV1.14B232,2013-03-06 04:52:00,
2013-03-05 20:57:00,-999.0,-99.9,29.90,North,-999,-999.0,0.0,-999,0.00,,,0.00,WeatherCatV1.14B232,2013-03-06 04:57:00,
2013-03-05 21:00:00,-999.0,-99.9,29.91,North,-999,-999.0,0.0,-999,0.00,,,0.00,WeatherCatV1.14B232,2013-03-06 05:00:00,
2013-03-05 21:05:00,-999.0,-99.9,29.90,North,-999,-999.0,0.0,-999,0.00,,,0.00,WeatherCatV1.14B232,2013-03-06 05:05:00,
2013-03-05 21:10:00,-999.0,-99.9,29.91,North,-999,-999.0,0.0,-999,0.00,,,0.00,WeatherCatV1.14B232,2013-03-06 05:10:00,
2013-03-05 21:15:00,-999.0,-99.9,29.91,North,-999,-999.0,0.0,-999,0.00,,,0.00,WeatherCatV1.14B232,2013-03-06 05:15:00,
2013-03-05 21:20:00,-999.0,-99.9,29.92,North,-999,-999.0,0.0,-999,0.00,,,0.00,WeatherCatV1.14B232,2013-03-06 05:20:00,
2013-03-05 21:25:00,-999.0,-99.9,29.91,North,-999,-999.0,0.0,-999,0.00,,,0.00,WeatherCatV1.14B232,2013-03-06 05:25:00,
2013-03-05 21:30:00,-999.0,-99.9,29.91,North,-999,-999.0,0.0,-999,0.00,,,0.00,WeatherCatV1.14B232,2013-03-06 05:30:00,
2013-03-05 21:35:00,-999.0,-99.9,29.91,North,-999,-999.0,0.0,-999,0.00,,,0.00,WeatherCatV1.14B232,2013-03-06 05:35:00,
2013-03-05 21:40:00,-999.0,-99.9,29.92,North,-999,-999.0,0.0,-999,0.00,,,0.00,WeatherCatV1.14B232,2013-03-06 05:40:00,
2013-03-05 21:45:00,-999.0,-99.9,29.91,North,-999,-999.0,0.0,-999,0.00,,,0.00,WeatherCatV1.14B232,2013-03-06 05:45:00,
2013-03-05 21:50:00,-999.0,-99.9,29.91,North,-999,-999.0,0.0,-999,0.00,,,0.00,WeatherCatV1.14B232,2013-03-06 05:50:00,
2013-03-05 21:55:00,-999.0,-99.9,29.92,North,-999,-999.0,0.0,-999,0.00,,,0.00,WeatherCatV1.14B232,2013-03-06 05:55:00,
2013-03-05 22:00:00,-999.0,-99.9,29.91,North,-999,-999.0,0.0,-999,0.00,,,0.00,WeatherCatV1.14B232,2013-03-06 06:00:00,
2013-03-05 22:04:00,-999.0,-99.9,29.91,North,-999,-999.0,0.0,-999,0.00,,,0.00,WeatherCatV1.14B232,2013-03-06 06:04:00,
2013-03-05 22:09:00,-999.0,-99.9,29.90,North,-999,-999.0,0.0,-999,0.00,,,0.00,WeatherCatV1.14B232,2013-03-06 06:09:00,
2013-03-05 22:12:00,-999.0,-99.9,29.90,North,-999,-999.0,0.0,-999,0.00,,,0.00,WeatherCatV1.14B232,2013-03-06 06:12:00,
2013-03-05 22:13:00,-999.0,-99.9,29.90,North,-999,-999.0,0.0,-999,0.00,,,0.00,WeatherCatV1.14B232,2013-03-06 06:13:00,
2013-03-05 22:18:00,-999.0,-99.9,29.90,North,-999,-999.0,0.0,-999,0.00,,,0.00,WeatherCatV1.14B232,2013-03-06 06:18:00,
2013-03-05 22:23:00,49.2,46.1,29.90,SSE,163,0.0,1.0,89,0.04,,,0.07,WeatherCatV1.14B232,2013-03-06 06:23:00,
2013-03-05 22:28:00,49.0,46.2,29.90,SSW,195,0.0,1.0,90,0.00,,,0.07,WeatherCatV1.14B232,2013-03-06 06:28:00,
2013-03-05 22:33:00,48.9,46.1,29.90,East,81,2.0,6.0,90,0.00,,,0.07,WeatherCatV1.14B232,2013-03-06 06:33:00,
2013-03-05 22:38:00,49.2,46.4,29.90,SE,146,0.0,4.0,90,0.00,,,0.07,WeatherCatV1.14B232,2013-03-06 06:38:00,
2013-03-05 22:43:00,49.3,45.9,29.90,ENE,71,0.0,1.0,88,0.00,,,0.07,WeatherCatV1.14B232,2013-03-06 06:43:00,
2013-03-05 22:48:00,49.2,46.1,29.90,WSW,244,0.0,1.0,89,0.00,,,0.07,WeatherCatV1.14B232,2013-03-06 06:48:00,
2013-03-05 22:53:00,49.1,45.7,29.90,WNW,291,1.0,5.0,88,0.00,,,0.07,WeatherCatV1.14B232,2013-03-06 06:53:00,
2013-03-05 22:58:00,49.4,45.4,29.90,SSW,209,1.0,2.0,86,0.00,,,0.07,WeatherCatV1.14B232,2013-03-06 06:58:00,
2013-03-05 23:03:00,49.5,45.5,29.90,SSE,150,3.0,6.0,86,0.00,,,0.07,WeatherCatV1.14B232,2013-03-06 07:03:00,
2013-03-05 23:08:00,49.5,45.2,29.90,SW,227,1.0,1.0,85,0.00,,,0.07,WeatherCatV1.14B232,2013-03-06 07:08:00,
2013-03-05 23:13:00,49.7,45.4,29.90,SW,232,2.0,9.0,85,0.00,,,0.07,WeatherCatV1.14B232,2013-03-06 07:13:00,
2013-03-05 23:18:00,49.8,45.5,29.90,South,171,3.0,9.0,85,0.00,,,0.08,WeatherCatV1.14B232,2013-03-06 07:18:00,
2013-03-05 23:23:00,49.8,45.5,29.89,East,94,0.0,6.0,85,0.00,,,0.08,WeatherCatV1.14B232,2013-03-06 07:23:00,
2013-03-05 23:28:00,49.9,45.6,29.90,SE,132,2.0,4.0,85,0.00,,,0.08,WeatherCatV1.14B232,2013-03-06 07:28:00,
2013-03-05 23:33:00,50.1,45.5,29.90,SE,126,5.0,7.0,84,0.00,,,0.08,WeatherCatV1.14B232,2013-03-06 07:33:00,
2013-03-05 23:38:00,50.1,45.5,29.89,NW,305,0.0,6.0,84,0.00,,,0.08,WeatherCatV1.14B232,2013-03-06 07:38:00,
2013-03-05 23:43:00,50.3,45.7,29.89,SSE,153,3.0,5.0,84,0.00,,,0.08,WeatherCatV1.14B232,2013-03-06 07:43:00,
2013-03-05 23:48:00,50.3,45.7,29.89,SE,140,2.0,11.0,84,0.00,,,0.08,WeatherCatV1.14B232,2013-03-06 07:48:00,
2013-03-05 23:53:00,50.2,45.6,29.89,SE,145,0.0,5.0,84,0.00,,,0.08,WeatherCatV1.14B232,2013-03-06 07:53:00,
2013-03-05 23:58:00,50.2,45.2,29.89,SE,126,0.0,3.0,83,0.00,,,0.08,WeatherCatV1.14B232,2013-03-06 07:58:00,